[[{"header":{"parameterUnit":"m.s-1","parameterCategory":1,"la1":30.2992,"la2":30.254,"lo1":-89.0895,"lo2":-89.0443,"dy":0.0025,"dx":0.0025,"nx":19,"ny":19,"refTime":"2026-03-27T09:00:00:Z","depth":0,"parameterNumber":2,"parameterNumberName":"U-component_of_WINDS"},"data":[0,0,0,0.6179,0.6179,0.6218,0.6218,0.6258,0.6258,0,0,0,0,0,0,0,0,0,0,0,0.616,0.616,0.6179,0.6179,0.6218,0.6218,0.6258,0.6258,0,0,0,0,0,0,0,0,0,0,0,0.616,0.616,0.616,0.6179,0.6218,0.6218,0.6258,0.6232,0,0,0,0,0,0,0,0,0,0,0.6197,0.6173,0.616,0.616,0.618,0.6218,0.6218,0.6231,0.6234,0.6236,0,0.6235,0,0.6247,0.626,0.626,0,0,0,0.6185,0.6171,0.6187,0.616,0.618,0.6218,0.6202,0.6233,0.6236,0.6239,0.6236,0.6237,0.6248,0.626,0.6261,0.6249,0.6249,0,0,0.6183,0.6164,0.6185,0.6188,0.6181,0.6201,0.6203,0.6235,0.623,0.6236,0.6239,0.6248,0.6261,0.6261,0.625,0.6249,0,0,0,0.6173,0.6162,0.6178,0.6187,0.6194,0.6202,0.6205,0.6229,0.6235,0.6239,0.6249,0.6261,0.6261,0.625,0.625,0.6215,0,0,0,0.6172,0.6157,0.6177,0.6166,0.6193,0.6212,0.6197,0.6233,0.6237,0.6249,0.6261,0.6261,0.6251,0.625,0.6217,0.6202,0,0,0,0.616,0.6155,0.6158,0.6165,0.6181,0.6212,0.622,0.6235,0.6243,0.626,0.6261,0.6251,0.625,0.6218,0.6204,0.6192,0,0,0,0.6143,0.6129,0.6157,0.6145,0.618,0.619,0.622,0.6229,0.624,0.6261,0.6251,0.625,0.6219,0.6206,0.6194,0.6178,0.617,0,0,0.6115,0.6125,0.6119,0.6146,0.6145,0.6185,0.618,0.6208,0.6228,0.6241,0.6241,0.6216,0.6205,0.6192,0.6132,0.6125,0,0,0,0.6104,0.6099,0.6103,0.6111,0.6131,0.6147,0.6178,0.6189,0.62,0.6231,0.6209,0.6203,0.6197,0.619,0.6184,0.618,0.6246,0.6246,0.6246,0.6037,0.6061,0.6053,0.6081,0.6089,0.612,0.6128,0.6148,0.6172,0.6166,0.617,0.613,0.6121,0.6117,0.6112,0.6164,0.6164,0.6164,0.6164,0.5997,0.5994,0.6024,0.6026,0.6052,0.6055,0.6084,0.61,0.6106,0.6129,0.6125,0.6147,0.6109,0.6105,0.6161,0.6162,0.6162,0.6162,0.6163,0.5956,0.5958,0.597,0.5983,0.5991,0.602,0.6024,0.6048,0.6071,0.6067,0.6072,0.6073,0.6076,0.6068,0.6068,0.6067,0.6067,0.6067,0.6067,0.5908,0.5922,0.5922,0.594,0.5948,0.5961,0.599,0.5999,0.6014,0.6031,0.6031,0.6055,0.6101,0.6111,0.6065,0.6065,0.6066,0.6066,0.6066,0.5858,0.5872,0.5872,0.5879,0.5902,0.5907,0.5937,0.5951,0.5962,0.5962,0.5986,0.6017,0.6029,0.6034,0.6043,0.5982,0.5982,0.5982,0.5982,0.5822,0.583,0.5834,0.5843,0.5856,0.5882,0.588,0.5902,0.5928,0.5936,0.5948,0.5962,0.5966,0.5976,0.5982,0.5991,0.5918,0.5918,0.5918,0.5792,0.5802,0.5795,0.5819,0.5838,0.5854,0.5853,0.5863,0.5895,0.5916,0.5942,0.5945,0.5968,0.5974,0.5995,0.6004,0.602,0,0]},{"header":{"parameterUnit":"m.s-1","parameterCategory":1,"la1":30.2992,"la2":30.254,"lo1":-89.0895,"lo2":-89.0443,"dy":0.0025,"dx":0.0025,"nx":19,"ny":19,"refTime":"2026-03-27T09:00:00:Z","depth":0,"parameterNumber":3,"parameterNumberName":"V-component_of_WINDS"},"data":[0,0,0,1.2841,1.2842,1.2887,1.2887,1.2932,1.2932,0,0,0,0,0,0,0,0,0,0,0,1.2823,1.2823,1.2841,1.2842,1.2887,1.2887,1.2932,1.2932,0,0,0,0,0,0,0,0,0,0,0,1.2823,1.2823,1.2823,1.2842,1.2887,1.2887,1.2932,1.2902,0,0,0,0,0,0,0,0,0,0,1.286,1.284,1.2823,1.2823,1.2842,1.2887,1.2887,1.29,1.2903,1.2907,0,1.2911,0,1.2922,1.2935,1.2935,0,0,0,1.2845,1.2837,1.2853,1.2823,1.2842,1.2887,1.2867,1.2902,1.2906,1.2911,1.2912,1.2914,1.2923,1.2935,1.2935,1.2948,1.2948,0,0,1.2842,1.2828,1.2851,1.2855,1.2851,1.2866,1.2869,1.2904,1.2904,1.2912,1.2915,1.2924,1.2935,1.2935,1.2948,1.2948,0,0,0,1.2833,1.2826,1.2842,1.2853,1.2862,1.2867,1.287,1.2902,1.2909,1.2916,1.2924,1.2935,1.2936,1.2948,1.2948,1.2929,0,0,0,1.2832,1.2821,1.2841,1.2833,1.2862,1.2884,1.2867,1.2906,1.2911,1.2924,1.2935,1.2936,1.2948,1.2948,1.293,1.2923,0,0,0,1.2821,1.282,1.2825,1.2832,1.2851,1.2883,1.2892,1.2907,1.2916,1.2935,1.2936,1.2948,1.2948,1.2931,1.2924,1.292,0,0,0,1.2806,1.281,1.2825,1.2831,1.285,1.2873,1.2892,1.2909,1.2923,1.2935,1.2948,1.2948,1.2931,1.2925,1.2921,1.2913,1.2909,0,0,1.2803,1.2809,1.2814,1.2828,1.2844,1.2867,1.2879,1.2905,1.2919,1.2936,1.2937,1.293,1.2924,1.292,1.2895,1.2892,0,0,0,1.2808,1.2811,1.2818,1.2831,1.2851,1.2865,1.2891,1.2899,1.2915,1.2926,1.2929,1.2926,1.2924,1.2921,1.2918,1.2915,1.2946,1.2946,1.2946,1.2784,1.28,1.2808,1.2829,1.284,1.2864,1.2874,1.2889,1.2905,1.2904,1.291,1.2892,1.2888,1.2886,1.2884,1.2908,1.2908,1.2908,1.2908,1.2778,1.2784,1.28,1.2814,1.283,1.284,1.2861,1.287,1.288,1.2891,1.289,1.29,1.2883,1.2881,1.2907,1.2907,1.2907,1.2907,1.2907,1.2764,1.2769,1.2779,1.2796,1.2806,1.2826,1.2833,1.2848,1.2862,1.2861,1.2866,1.2866,1.2866,1.2862,1.2862,1.2862,1.2862,1.2862,1.2862,1.2744,1.2756,1.2761,1.2779,1.2786,1.2797,1.2818,1.2825,1.2836,1.2845,1.2845,1.2857,1.2879,1.2882,1.2861,1.2861,1.2862,1.2862,1.2862,1.2731,1.2735,1.2744,1.2751,1.2769,1.2776,1.2793,1.2805,1.2812,1.2814,1.2826,1.284,1.2847,1.2849,1.2852,1.2824,1.2824,1.2824,1.2824,1.2718,1.2722,1.2731,1.2741,1.2751,1.2767,1.277,1.2783,1.2798,1.2803,1.2809,1.2814,1.2816,1.2822,1.2825,1.2828,1.2794,1.2794,1.2794,1.2709,1.2714,1.2717,1.2731,1.2745,1.2756,1.2758,1.2765,1.2783,1.2793,1.2805,1.2807,1.2816,1.2819,1.283,1.2834,1.284,0,0]}]]